START_TIME,STEP,MOV.,M35,t_acc.,PL05,t_acc.,PL06,t_acc.,PL07,t_acc.
1979-07-14 18:00:24.160 ,0,1,0.,4.8,5.,4.8,1.,4.8,3.,4.8
1979-07-14 18:00:28.960 ,0,1,0.,4.8,5.,4.8,4.,4.8,2.,4.8
1979-07-14 18:00:33.760 ,0,1,0.,4.8,3.,4.8,0.,4.8,2.,4.8
1979-07-14 18:00:38.560 ,0,1,0.,4.8,3.,4.8,2.,4.8,3.,4.8
1979-07-14 18:00:43.360 ,0,1,0.,4.8,4.,4.8,0.,4.8,1.,4.8
1979-07-14 18:00:48.160 ,4,1,0.,4.8,2.,4.8,5.,4.8,3.,4.8
1979-07-14 18:00:52.960 ,4,1,0.,4.8,2.,4.8,4.,4.8,2.,4.8
1979-07-14 18:00:57.760 ,4,1,0.,4.8,2.,4.8,2.,4.8,2.,4.8
1979-07-14 18:01:02.560 ,4,1,0.,4.8,1.,4.8,1.,4.8,3.,4.8
1979-07-14 18:01:07.360 ,4,1,0.,4.8,5.,4.8,2.,4.8,1.,4.8
1979-07-14 18:01:12.160 ,7,1,0.,4.8,1.,4.8,0.,4.8,1.,4.8
1979-07-14 18:01:16.960 ,7,1,0.,4.8,1.,4.8,0.,4.8,2.,4.8
1979-07-14 18:01:21.760 ,7,1,0.,4.8,4.,4.8,1.,4.8,2.,4.8
1979-07-14 18:01:26.560 ,7,1,0.,4.8,2.,4.8,0.,4.8,0.,4.8
1979-07-14 18:01:31.360 ,7,1,0.,4.8,1.,4.8,0.,4.8,0.,4.8
1979-07-14 18:01:36.160 ,3,1,0.,4.8,0.,4.8,0.,4.8,2.,4.8
1979-07-14 18:01:40.960 ,3,1,0.,4.8,6.,4.8,4.,4.8,0.,4.8
1979-07-14 18:01:45.760 ,3,1,0.,4.8,3.,4.8,1.,4.8,2.,4.8
1979-07-14 18:01:50.560 ,3,1,0.,4.8,3.,4.8,2.,4.8,2.,4.8
1979-07-14 18:01:55.360 ,3,1,0.,4.8,0.,4.8,2.,4.8,2.,4.8
1979-07-14 18:02:00.160 ,0,1,0.,4.8,4.,4.8,2.,4.8,4.,4.8
1979-07-14 18:02:04.960 ,0,1,0.,4.8,3.,4.8,2.,4.8,0.,4.8
1979-07-14 18:02:09.760 ,0,1,0.,4.8,4.,4.8,1.,4.8,1.,4.8
1979-07-14 18:02:14.560 ,0,1,0.,4.8,3.,4.8,1.,4.8,2.,4.8
1979-07-14 18:02:19.360 ,0,1,0.,4.8,0.,4.8,1.,4.8,2.,4.8
1979-07-14 18:02:24.160 ,4,1,0.,4.8,2.,4.8,2.,4.8,1.,4.8
1979-07-14 18:02:28.960 ,4,1,0.,4.8,4.,4.8,2.,4.8,1.,4.8
1979-07-14 18:02:33.760 ,4,1,0.,4.8,2.,4.8,2.,4.8,0.,4.8
1979-07-14 18:02:38.560 ,4,1,0.,4.8,5.,4.8,3.,4.8,1.,4.8
1979-07-14 18:02:43.360 ,4,1,0.,4.8,3.,4.8,1.,4.8,3.,4.8
1979-07-14 18:02:48.160 ,7,1,0.,4.8,4.,4.8,2.,4.8,1.,4.8
1979-07-14 18:02:52.960 ,7,1,0.,4.8,2.,4.8,0.,4.8,1.,4.8
1979-07-14 18:02:57.760 ,7,1,0.,4.8,3.,4.8,0.,4.8,0.,4.8
1979-07-14 18:03:02.560 ,7,1,0.,4.8,2.,4.8,0.,4.8,1.,4.8
1979-07-14 18:03:07.360 ,7,1,0.,4.8,0.,4.8,0.,4.8,0.,4.8
1979-07-14 18:03:12.160 ,3,1,0.,4.8,0.,4.8,0.,4.8,0.,4.8
1979-07-14 18:03:16.960 ,3,1,0.,4.8,3.,4.8,2.,4.8,1.,4.8
1979-07-14 18:03:21.760 ,3,1,0.,4.8,3.,4.8,1.,4.8,1.,4.8
1979-07-14 18:03:26.560 ,3,1,0.,4.8,5.,4.8,2.,4.8,4.,4.8
1979-07-14 18:03:31.360 ,3,1,0.,4.8,4.,4.8,2.,4.8,3.,4.8
1979-07-14 18:03:36.160 ,0,1,0.,4.8,3.,4.8,2.,4.8,6.,4.8
1979-07-14 18:03:40.960 ,0,1,0.,4.8,1.,4.8,3.,4.8,3.,4.8
1979-07-14 18:03:45.760 ,0,1,0.,4.8,4.,4.8,3.,4.8,3.,4.8
1979-07-14 18:03:50.560 ,0,1,0.,4.8,2.,4.8,2.,4.8,3.,4.8
1979-07-14 18:03:55.360 ,0,1,0.,4.8,1.,4.8,1.,4.8,0.,4.8
1979-07-14 18:04:00.160 ,4,1,0.,4.8,4.,4.8,1.,4.8,5.,4.8
1979-07-14 18:04:04.960 ,4,1,0.,4.8,2.,4.8,0.,4.8,5.,4.8
1979-07-14 18:04:09.760 ,4,1,0.,4.8,3.,4.8,4.,4.8,2.,4.8
1979-07-14 18:04:14.560 ,4,1,0.,4.8,2.,4.8,3.,4.8,0.,4.8
1979-07-14 18:04:19.360 ,4,1,0.,4.8,5.,4.8,0.,4.8,0.,4.8
1979-07-14 18:04:24.160 ,7,1,0.,4.8,4.,4.8,2.,4.8,1.,4.8
1979-07-14 18:04:28.960 ,7,1,0.,4.8,1.,4.8,0.,4.8,2.,4.8
1979-07-14 18:04:33.760 ,7,1,0.,4.8,1.,4.8,4.,4.8,2.,4.8
1979-07-14 18:04:38.560 ,7,1,0.,4.8,0.,4.8,0.,4.8,0.,4.8
1979-07-14 18:04:43.360 ,7,1,0.,4.8,2.,4.8,1.,4.8,0.,4.8
1979-07-14 18:04:48.160 ,3,1,0.,4.8,1.,4.8,1.,4.8,0.,4.8
1979-07-14 18:04:52.960 ,3,1,0.,4.8,2.,4.8,2.,4.8,2.,4.8
1979-07-14 18:04:57.760 ,3,1,0.,4.8,1.,4.8,0.,4.8,6.,4.8
1979-07-14 18:05:02.560 ,3,1,0.,4.8,5.,4.8,1.,4.8,1.,4.8
1979-07-14 18:05:07.360 ,3,1,0.,4.8,3.,4.8,2.,4.8,3.,4.8
1979-07-14 18:05:12.160 ,0,1,0.,4.8,1.,4.8,1.,4.8,1.,4.8
1979-07-14 18:05:16.960 ,0,1,0.,4.8,2.,4.8,2.,4.8,2.,4.8
1979-07-14 18:05:21.760 ,0,1,0.,4.8,4.,4.8,2.,4.8,0.,4.8
1979-07-14 18:05:26.560 ,0,1,0.,4.8,2.,4.8,0.,4.8,3.,4.8
1979-07-14 18:05:31.360 ,0,1,0.,4.8,2.,4.8,1.,4.8,1.,4.8
1979-07-14 18:05:36.160 ,0,0,0.,4.8,3.,4.8,2.,4.8,1.,4.8
1979-07-14 18:05:40.960 ,0,0,0.,4.8,3.,4.8,1.,4.8,1.,4.8
1979-07-14 18:05:45.760 ,0,0,0.,4.8,3.,4.8,3.,4.8,3.,4.8
1979-07-14 18:05:50.560 ,0,0,0.,4.8,1.,4.8,1.,4.8,2.,4.8
1979-07-14 18:05:55.360 ,0,0,0.,4.8,2.,4.8,1.,4.8,2.,4.8
1979-07-14 18:06:00.160 ,0,0,0.,4.8,1.,4.8,2.,4.8,2.,4.8
1979-07-14 18:06:04.960 ,0,0,0.,4.8,2.,4.8,2.,4.8,1.,4.8
1979-07-14 18:06:09.760 ,0,0,0.,4.8,5.,4.8,1.,4.8,2.,4.8
1979-07-14 18:06:14.560 ,0,0,0.,4.8,0.,4.8,0.,4.8,0.,4.8
1979-07-14 18:06:19.360 ,0,0,0.,4.8,0.,4.8,0.,4.8,0.,4.8
1979-07-14 18:06:24.160 ,5,0,0.,4.8,0.,4.8,0.,4.8,0.,4.8
1979-07-14 18:06:28.960 ,5,0,0.,4.8,5.,4.8,4.,4.8,3.,4.8
1979-07-14 18:06:33.760 ,5,0,0.,4.8,4.,4.8,1.,4.8,2.,4.8
1979-07-14 18:06:38.560 ,5,0,0.,4.8,3.,4.8,1.,4.8,1.,4.8
1979-07-14 18:06:43.360 ,5,0,0.,4.8,3.,4.8,0.,4.8,2.,4.8
1979-07-14 18:06:48.160 ,5,0,0.,4.8,4.,4.8,1.,4.8,0.,4.8
1979-07-14 18:06:52.960 ,5,0,0.,4.8,2.,4.8,5.,4.8,1.,4.8
1979-07-14 18:06:57.760 ,5,0,0.,4.8,1.,4.8,4.,4.8,4.,4.8
1979-07-14 18:07:02.560 ,5,0,0.,4.8,5.,4.8,3.,4.8,2.,4.8
1979-07-14 18:07:07.360 ,5,0,0.,4.8,2.,4.8,2.,4.8,0.,4.8
1979-07-14 18:07:12.160 ,4,0,0.,4.8,1.,4.8,0.,4.8,3.,4.8
1979-07-14 18:07:16.960 ,4,0,0.,4.8,3.,4.8,3.,4.8,2.,4.8
1979-07-14 18:07:21.760 ,4,0,0.,4.8,4.,4.8,3.,4.8,1.,4.8
1979-07-14 18:07:26.560 ,4,0,0.,4.8,4.,4.8,0.,4.8,1.,4.8
1979-07-14 18:07:31.360 ,4,0,0.,4.8,4.,4.8,4.,4.8,1.,4.8
1979-07-14 18:07:36.160 ,4,0,0.,4.8,3.,4.8,1.,4.8,0.,4.8
1979-07-14 18:07:40.960 ,4,0,0.,4.8,1.,4.8,0.,4.8,2.,4.8
1979-07-14 18:07:45.760 ,4,0,0.,4.8,6.,4.8,3.,4.8,1.,4.8
1979-07-14 18:07:50.560 ,4,0,0.,4.8,1.,4.8,0.,4.8,2.,4.8
1979-07-14 18:07:55.360 ,4,0,0.,4.8,2.,4.8,0.,4.8,2.,4.8
1979-07-14 18:08:00.160 ,3,0,0.,4.8,4.,4.8,3.,4.8,2.,4.8
1979-07-14 18:08:04.960 ,3,0,0.,4.8,2.,4.8,0.,4.8,2.,4.8
1979-07-14 18:08:09.760 ,3,0,0.,4.8,2.,4.8,0.,4.8,3.,4.8
1979-07-14 18:08:14.560 ,3,0,0.,4.8,2.,4.8,0.,4.8,3.,4.8
1979-07-14 18:08:19.360 ,3,0,0.,4.8,3.,4.8,2.,4.8,1.,4.8
1979-07-14 18:08:24.160 ,3,0,0.,4.8,2.,4.8,1.,4.8,1.,4.8
1979-07-14 18:08:28.960 ,3,0,0.,4.8,2.,4.8,2.,4.8,2.,4.8
1979-07-14 18:08:33.760 ,3,0,0.,4.8,3.,4.8,2.,4.8,2.,4.8
1979-07-14 18:08:38.560 ,3,0,0.,4.8,3.,4.8,2.,4.8,3.,4.8
1979-07-14 18:08:43.360 ,3,0,0.,4.8,1.,4.8,3.,4.8,1.,4.8
1979-07-14 18:08:48.160 ,2,0,0.,4.8,6.,4.8,1.,4.8,2.,4.8
1979-07-14 18:08:52.960 ,2,0,0.,4.8,2.,4.8,0.,4.8,1.,4.8
1979-07-14 18:08:57.760 ,2,0,0.,4.8,4.,4.8,1.,4.8,3.,4.8
1979-07-14 18:09:02.560 ,2,0,0.,4.8,2.,4.8,3.,4.8,1.,4.8
1979-07-14 18:09:07.360 ,2,0,0.,4.8,1.,4.8,1.,4.8,3.,4.8
1979-07-14 18:09:12.160 ,2,0,0.,4.8,0.,4.8,1.,4.8,1.,4.8
1979-07-14 18:09:16.960 ,2,0,0.,4.8,4.,4.8,0.,4.8,0.,4.8
1979-07-14 18:09:21.760 ,2,0,0.,4.8,4.,4.8,1.,4.8,2.,4.8
1979-07-14 18:09:26.560 ,2,0,0.,4.8,4.,4.8,2.,4.8,2.,4.8
1979-07-14 18:09:31.360 ,2,0,0.,4.8,1.,4.8,1.,4.8,3.,4.8
1979-07-14 18:09:36.160 ,1,0,0.,4.8,4.,4.8,3.,4.8,6.,4.8
1979-07-14 18:09:40.960 ,1,0,0.,4.8,3.,4.8,1.,4.8,3.,4.8
1979-07-14 18:09:45.760 ,1,0,0.,4.8,6.,4.8,3.,4.8,1.,4.8
1979-07-14 18:09:50.560 ,1,0,0.,4.8,2.,4.8,0.,4.8,0.,4.8
1979-07-14 18:09:55.360 ,1,0,0.,4.8,0.,4.8,1.,4.8,1.,4.8
1979-07-14 18:10:00.160 ,1,0,0.,4.8,2.,4.8,3.,4.8,1.,4.8
1979-07-14 18:10:04.960 ,1,0,0.,4.8,4.,4.8,0.,4.8,1.,4.8
1979-07-14 18:10:09.760 ,1,0,0.,4.8,2.,4.8,3.,4.8,1.,4.8
1979-07-14 18:10:14.560 ,1,0,0.,4.8,0.,4.8,1.,4.8,3.,4.8
1979-07-14 18:10:19.360 ,1,0,0.,4.8,1.,4.8,1.,4.8,2.,4.8
1979-07-14 18:10:24.160 ,0,0,0.,4.8,7.,4.8,2.,4.8,2.,4.8
1979-07-14 18:10:28.960 ,0,0,0.,4.8,2.,4.8,1.,4.8,1.,4.8
1979-07-14 18:10:33.760 ,0,0,0.,4.8,1.,4.8,3.,4.8,3.,4.8
1979-07-14 18:10:38.560 ,0,0,0.,4.8,3.,4.8,0.,4.8,0.,4.8
1979-07-14 18:10:43.360 ,0,0,0.,4.8,1.,4.8,0.,4.8,2.,4.8
1979-07-14 18:10:48.160 ,0,0,0.,4.8,2.,4.8,4.,4.8,2.,4.8
1979-07-14 18:10:52.960 ,0,0,0.,4.8,2.,4.8,2.,4.8,2.,4.8
1979-07-14 18:10:57.760 ,0,0,0.,4.8,4.,4.8,0.,4.8,3.,4.8
1979-07-14 18:11:02.560 ,0,0,0.,4.8,1.,4.8,4.,4.8,3.,4.8
1979-07-14 18:11:07.360 ,0,0,0.,4.8,2.,4.8,0.,4.8,3.,4.8
1979-07-14 18:11:12.160 ,0,0,0.,4.8,3.,4.8,1.,4.8,1.,4.8
1979-07-14 18:11:16.960 ,0,0,0.,4.8,2.,4.8,1.,4.8,1.,4.8
1979-07-14 18:11:21.760 ,0,0,0.,4.8,5.,4.8,0.,4.8,1.,4.8
1979-07-14 18:11:26.560 ,0,0,0.,4.8,1.,4.8,0.,4.8,1.,4.8
1979-07-14 18:11:31.360 ,0,0,0.,4.8,2.,4.8,0.,4.8,1.,4.8
1979-07-14 18:11:36.160 ,0,0,0.,4.8,2.,4.8,2.,4.8,1.,4.8
1979-07-14 18:11:40.960 ,0,0,0.,4.8,2.,4.8,2.,4.8,3.,4.8
1979-07-14 18:11:45.760 ,0,0,0.,4.8,2.,4.8,2.,4.8,3.,4.8
1979-07-14 18:11:50.560 ,0,0,0.,4.8,4.,4.8,1.,4.8,1.,4.8
1979-07-14 18:11:55.360 ,0,0,0.,4.8,4.,4.8,3.,4.8,2.,4.8
1979-07-14 18:12:00.160 ,1,0,0.,4.8,3.,4.8,2.,4.8,1.,4.8
1979-07-14 18:12:04.960 ,1,0,0.,4.8,3.,4.8,0.,4.8,0.,4.8
1979-07-14 18:12:09.760 ,1,0,0.,4.8,3.,4.8,1.,4.8,2.,4.8
1979-07-14 18:12:14.560 ,1,0,0.,4.8,1.,4.8,2.,4.8,0.,4.8
1979-07-14 18:12:19.360 ,1,0,0.,4.8,3.,4.8,4.,4.8,1.,4.8
1979-07-14 18:12:24.160 ,1,0,0.,4.8,6.,4.8,0.,4.8,1.,4.8
1979-07-14 18:12:28.960 ,1,0,0.,4.8,1.,4.8,0.,4.8,1.,4.8
1979-07-14 18:12:33.760 ,1,0,0.,4.8,0.,4.8,0.,4.8,1.,4.8
1979-07-14 18:12:38.560 ,1,0,0.,4.8,5.,4.8,1.,4.8,1.,4.8
1979-07-14 18:12:43.360 ,1,0,0.,4.8,4.,4.8,1.,4.8,2.,4.8
1979-07-14 18:12:48.160 ,2,0,0.,4.8,2.,4.8,2.,4.8,1.,4.8
1979-07-14 18:12:52.960 ,2,0,0.,4.8,3.,4.8,2.,4.8,0.,4.8
1979-07-14 18:12:57.760 ,2,0,0.,4.8,1.,4.8,2.,4.8,0.,4.8
1979-07-14 18:13:02.560 ,2,0,0.,4.8,3.,4.8,1.,4.8,0.,4.8
1979-07-14 18:13:07.360 ,2,0,0.,4.8,3.,4.8,2.,4.8,2.,4.8
1979-07-14 18:13:12.160 ,2,0,0.,4.8,5.,4.8,2.,4.8,3.,4.8
1979-07-14 18:13:16.960 ,2,0,0.,4.8,2.,4.8,3.,4.8,1.,4.8
1979-07-14 18:13:21.760 ,2,0,0.,4.8,4.,4.8,3.,4.8,0.,4.8
1979-07-14 18:13:26.560 ,2,0,0.,4.8,1.,4.8,1.,4.8,0.,4.8
1979-07-14 18:13:31.360 ,2,0,0.,4.8,3.,4.8,1.,4.8,1.,4.8
1979-07-14 18:13:36.160 ,3,0,0.,4.8,4.,4.8,1.,4.8,5.,4.8
1979-07-14 18:13:40.960 ,3,0,0.,4.8,4.,4.8,2.,4.8,3.,4.8
1979-07-14 18:13:45.760 ,3,0,0.,4.8,3.,4.8,0.,4.8,2.,4.8
1979-07-14 18:13:50.560 ,3,0,0.,4.8,1.,4.8,0.,4.8,1.,4.8
1979-07-14 18:13:55.360 ,3,0,0.,4.8,2.,4.8,2.,4.8,2.,4.8
1979-07-14 18:14:00.160 ,3,0,0.,4.8,8.,4.8,3.,4.8,2.,4.8
1979-07-14 18:14:04.960 ,3,0,0.,4.8,3.,4.8,0.,4.8,0.,4.8
1979-07-14 18:14:09.760 ,3,0,0.,4.8,2.,4.8,1.,4.8,2.,4.8
1979-07-14 18:14:14.560 ,3,0,0.,4.8,3.,4.8,1.,4.8,2.,4.8
1979-07-14 18:14:19.360 ,3,0,0.,4.8,2.,4.8,4.,4.8,2.,4.8
1979-07-14 18:14:24.160 ,4,0,0.,4.8,4.,4.8,1.,4.8,0.,4.8
1979-07-14 18:14:28.960 ,4,0,0.,4.8,2.,4.8,8.,4.8,1.,4.8
1979-07-14 18:14:33.760 ,4,0,0.,4.8,3.,4.8,3.,4.8,1.,4.8
1979-07-14 18:14:38.560 ,4,0,0.,4.8,1.,4.8,1.,4.8,5.,4.8
1979-07-14 18:14:43.360 ,4,0,0.,4.8,6.,4.8,2.,4.8,2.,4.8
1979-07-14 18:14:48.160 ,4,0,0.,4.8,2.,4.8,0.,4.8,3.,4.8
1979-07-14 18:14:52.960 ,4,0,0.,4.8,2.,4.8,0.,4.8,1.,4.8
1979-07-14 18:14:57.760 ,4,0,0.,4.8,2.,4.8,1.,4.8,0.,4.8
1979-07-14 18:15:02.560 ,4,0,0.,4.8,1.,4.8,1.,4.8,3.,4.8
1979-07-14 18:15:07.360 ,4,0,0.,4.8,1.,4.8,2.,4.8,1.,4.8
1979-07-14 18:15:12.160 ,5,0,0.,4.8,4.,4.8,0.,4.8,2.,4.8
1979-07-14 18:15:16.960 ,5,0,0.,4.8,2.,4.8,1.,4.8,2.,4.8
1979-07-14 18:15:21.760 ,5,0,0.,4.8,4.,4.8,1.,4.8,2.,4.8
1979-07-14 18:15:26.560 ,5,0,0.,4.8,2.,4.8,2.,4.8,1.,4.8
1979-07-14 18:15:31.360 ,5,0,0.,4.8,2.,4.8,1.,4.8,1.,4.8
1979-07-14 18:15:36.160 ,5,0,0.,4.8,1.,4.8,1.,4.8,0.,4.8
1979-07-14 18:15:40.960 ,5,0,0.,4.8,3.,4.8,0.,4.8,3.,4.8
1979-07-14 18:15:45.760 ,5,0,0.,4.8,1.,4.8,2.,4.8,1.,4.8
1979-07-14 18:15:50.560 ,5,0,0.,4.8,3.,4.8,1.,4.8,2.,4.8
1979-07-14 18:15:55.360 ,5,0,0.,4.8,1.,4.8,0.,4.8,2.,4.8
1979-07-14 18:16:00.160 ,6,0,0.,4.8,4.,4.8,0.,4.8,0.,4.8
1979-07-14 18:16:04.960 ,6,0,0.,4.8,3.,4.8,1.,4.8,0.,4.8
1979-07-14 18:16:09.760 ,6,0,0.,4.8,1.,4.8,3.,4.8,1.,4.8
1979-07-14 18:16:14.560 ,6,0,0.,4.8,1.,4.8,0.,4.8,1.,4.8
1979-07-14 18:16:19.360 ,6,0,0.,4.8,1.,4.8,2.,4.8,0.,4.8
1979-07-14 18:16:24.160 ,6,0,0.,4.8,0.,4.8,1.,4.8,2.,4.8
1979-07-14 18:16:28.960 ,6,0,0.,4.8,1.,4.8,2.,4.8,0.,4.8
1979-07-14 18:16:33.760 ,6,0,0.,4.8,0.,4.8,2.,4.8,0.,4.8
1979-07-14 18:16:38.560 ,6,0,0.,4.8,1.,4.8,0.,4.8,0.,4.8
1979-07-14 18:16:43.360 ,6,0,0.,4.8,3.,4.8,0.,4.8,1.,4.8
1979-07-14 18:16:48.160 ,7,0,0.,4.8,2.,4.8,0.,4.8,2.,4.8
1979-07-14 18:16:52.960 ,7,0,0.,4.8,3.,4.8,0.,4.8,2.,4.8
1979-07-14 18:16:57.760 ,7,0,0.,4.8,1.,4.8,0.,4.8,0.,4.8
1979-07-14 18:17:02.560 ,7,0,0.,4.8,1.,4.8,0.,4.8,0.,4.8
1979-07-14 18:17:07.360 ,7,0,0.,4.8,1.,4.8,0.,4.8,0.,4.8
1979-07-14 18:17:12.160 ,7,0,0.,4.8,0.,4.8,0.,4.8,0.,4.8
1979-07-14 18:17:16.960 ,7,0,0.,4.8,0.,4.8,0.,4.8,0.,4.8
1979-07-14 18:17:21.760 ,7,0,0.,4.8,0.,4.8,0.,4.8,0.,4.8
1979-07-14 18:17:26.560 ,7,0,0.,4.8,2.,4.8,0.,4.8,0.,4.8
1979-07-14 18:17:31.360 ,7,0,0.,4.8,0.,4.8,0.,4.8,0.,4.8
1979-07-14 18:17:36.160 ,7,0,0.,4.8,0.,4.8,0.,4.8,0.,4.8
1979-07-14 18:17:40.960 ,7,0,0.,4.8,0.,4.8,0.,4.8,0.,4.8
1979-07-14 18:17:45.760 ,7,0,0.,4.8,1.,4.8,0.,4.8,1.,4.8
1979-07-14 18:17:50.560 ,7,0,0.,4.8,0.,4.8,0.,4.8,0.,4.8
1979-07-14 18:17:55.360 ,7,0,0.,4.8,0.,4.8,0.,4.8,0.,4.8
1979-07-14 18:18:00.160 ,7,0,0.,4.8,1.,4.8,0.,4.8,0.,4.8
1979-07-14 18:18:04.960 ,7,0,0.,4.8,1.,4.8,0.,4.8,0.,4.8
1979-07-14 18:18:09.760 ,7,0,0.,4.8,1.,4.8,0.,4.8,0.,4.8
1979-07-14 18:18:14.560 ,7,0,0.,4.8,1.,4.8,0.,4.8,1.,4.8
1979-07-14 18:18:19.360 ,7,0,0.,4.8,1.,4.8,0.,4.8,0.,4.8
1979-07-14 18:18:24.160 ,6,0,0.,4.8,0.,4.8,0.,4.8,0.,4.8
1979-07-14 18:18:28.960 ,6,0,0.,4.8,0.,4.8,0.,4.8,0.,4.8
1979-07-14 18:18:33.760 ,6,0,0.,4.8,4.,4.8,0.,4.8,2.,4.8
1979-07-14 18:18:38.560 ,6,0,0.,4.8,3.,4.8,0.,4.8,1.,4.8
1979-07-14 18:18:43.360 ,6,0,0.,4.8,0.,4.8,0.,4.8,1.,4.8
1979-07-14 18:18:48.160 ,6,0,0.,4.8,1.,4.8,2.,4.8,0.,4.8
1979-07-14 18:18:52.960 ,6,0,0.,4.8,2.,4.8,3.,4.8,1.,4.8
1979-07-14 18:18:57.760 ,6,0,0.,4.8,2.,4.8,0.,4.8,1.,4.8
1979-07-14 18:19:02.560 ,6,0,0.,4.8,0.,4.8,1.,4.8,0.,4.8
1979-07-14 18:19:07.360 ,6,0,0.,4.8,4.,4.8,2.,4.8,0.,4.8
1979-07-14 18:19:12.160 ,5,0,0.,4.8,2.,4.8,1.,4.8,0.,4.8
1979-07-14 18:19:16.960 ,5,0,0.,4.8,1.,4.8,0.,4.8,0.,4.8
1979-07-14 18:19:21.760 ,5,0,0.,4.8,3.,4.8,2.,4.8,1.,4.8
1979-07-14 18:19:26.560 ,5,0,0.,4.8,1.,4.8,2.,4.8,1.,4.8
1979-07-14 18:19:31.360 ,5,0,0.,4.8,0.,4.8,2.,4.8,2.,4.8
1979-07-14 18:19:36.160 ,5,0,0.,4.8,1.,4.8,2.,4.8,1.,4.8
1979-07-14 18:19:40.960 ,5,0,0.,4.8,2.,4.8,1.,4.8,1.,4.8
1979-07-14 18:19:45.760 ,5,0,0.,4.8,0.,4.8,1.,4.8,0.,4.8
1979-07-14 18:19:50.560 ,5,0,0.,4.8,1.,4.8,0.,4.8,0.,4.8
1979-07-14 18:19:55.360 ,5,0,0.,4.8,1.,4.8,1.,4.8,3.,4.8
1979-07-14 18:20:00.160 ,4,0,0.,4.8,3.,4.8,0.,4.8,0.,4.8
1979-07-14 18:20:04.960 ,4,0,0.,4.8,3.,4.8,1.,4.8,1.,4.8
1979-07-14 18:20:09.760 ,4,0,0.,4.8,2.,4.8,0.,4.8,3.,4.8
1979-07-14 18:20:14.560 ,4,0,0.,4.8,2.,4.8,2.,4.8,2.,4.8
1979-07-14 18:20:19.360 ,4,0,0.,4.8,2.,4.8,2.,4.8,3.,4.8
1979-07-14 18:20:24.160 ,4,0,0.,4.8,4.,4.8,1.,4.8,3.,4.8
1979-07-14 18:20:28.960 ,4,0,0.,4.8,1.,4.8,3.,4.8,3.,4.8
1979-07-14 18:20:33.760 ,4,0,0.,4.8,0.,4.8,1.,4.8,1.,4.8
1979-07-14 18:20:38.560 ,4,0,0.,4.8,0.,4.8,0.,4.8,3.,4.8
1979-07-14 18:20:43.360 ,4,0,0.,4.8,0.,4.8,1.,4.8,0.,4.8
1979-07-14 18:20:48.160 ,3,0,0.,4.8,1.,4.8,1.,4.8,0.,4.8
1979-07-14 18:20:52.960 ,3,0,0.,4.8,0.,4.8,0.,4.8,1.,4.8
1979-07-14 18:20:57.760 ,3,0,0.,4.8,2.,4.8,0.,4.8,0.,4.8
1979-07-14 18:21:02.560 ,3,0,0.,4.8,1.,4.8,1.,4.8,4.,4.8
1979-07-14 18:21:07.360 ,3,0,0.,4.8,2.,4.8,2.,4.8,2.,4.8
1979-07-14 18:21:12.160 ,3,0,0.,4.8,0.,4.8,2.,4.8,1.,4.8
1979-07-14 18:21:16.960 ,3,0,0.,4.8,1.,4.8,2.,4.8,2.,4.8
1979-07-14 18:21:21.760 ,3,0,0.,4.8,0.,4.8,1.,4.8,3.,4.8
1979-07-14 18:21:26.560 ,3,0,0.,4.8,1.,4.8,0.,4.8,0.,4.8
1979-07-14 18:21:31.360 ,3,0,0.,4.8,1.,4.8,0.,4.8,3.,4.8
1979-07-14 18:21:36.160 ,2,0,0.,4.8,3.,4.8,2.,4.8,0.,4.8
1979-07-14 18:21:40.960 ,2,0,0.,4.8,2.,4.8,2.,4.8,0.,4.8
1979-07-14 18:21:45.760 ,2,0,0.,4.8,2.,4.8,2.,4.8,0.,4.8
1979-07-14 18:21:50.560 ,2,0,0.,4.8,1.,4.8,2.,4.8,2.,4.8
1979-07-14 18:21:55.360 ,2,0,0.,4.8,2.,4.8,1.,4.8,2.,4.8
1979-07-14 18:22:00.160 ,2,0,0.,4.8,0.,4.8,6.,4.8,0.,4.8
1979-07-14 18:22:04.960 ,2,0,0.,4.8,3.,4.8,0.,4.8,0.,4.8
1979-07-14 18:22:09.760 ,2,0,0.,4.8,1.,4.8,3.,4.8,2.,4.8
1979-07-14 18:22:14.560 ,2,0,0.,4.8,1.,4.8,0.,4.8,1.,4.8
1979-07-14 18:22:19.360 ,2,0,0.,4.8,2.,4.8,2.,4.8,1.,4.8
1979-07-14 18:22:24.160 ,1,0,0.,4.8,0.,4.8,0.,4.8,3.,4.8
1979-07-14 18:22:28.960 ,1,0,0.,4.8,1.,4.8,2.,4.8,0.,4.8
1979-07-14 18:22:33.760 ,1,0,0.,4.8,2.,4.8,3.,4.8,1.,4.8
1979-07-14 18:22:38.560 ,1,0,0.,4.8,1.,4.8,0.,4.8,1.,4.8
1979-07-14 18:22:43.360 ,1,0,0.,4.8,2.,4.8,1.,4.8,3.,4.8
1979-07-14 18:22:48.160 ,1,0,0.,4.8,4.,4.8,1.,4.8,1.,4.8
1979-07-14 18:22:52.960 ,1,0,0.,4.8,2.,4.8,5.,4.8,1.,4.8
1979-07-14 18:22:57.760 ,1,0,0.,4.8,1.,4.8,4.,4.8,0.,4.8
1979-07-14 18:23:02.560 ,1,0,0.,4.8,3.,4.8,1.,4.8,1.,4.8
1979-07-14 18:23:07.360 ,1,0,0.,4.8,1.,4.8,1.,4.8,3.,4.8
1979-07-14 18:23:12.160 ,0,0,0.,4.8,0.,4.8,3.,4.8,2.,4.8
1979-07-14 18:23:16.960 ,0,0,0.,4.8,1.,4.8,1.,4.8,3.,4.8
1979-07-14 18:23:21.760 ,0,0,0.,4.8,2.,4.8,2.,4.8,0.,4.8
1979-07-14 18:23:26.560 ,0,0,0.,4.8,1.,4.8,1.,4.8,2.,4.8
1979-07-14 18:23:31.360 ,0,0,0.,4.8,0.,4.8,1.,4.8,2.,4.8
1979-07-14 18:23:36.160 ,0,0,0.,4.8,1.,4.8,2.,4.8,1.,4.8
1979-07-14 18:23:40.960 ,0,0,0.,4.8,2.,4.8,2.,4.8,2.,4.8
1979-07-14 18:23:45.760 ,0,0,0.,4.8,2.,4.8,0.,4.8,2.,4.8
1979-07-14 18:23:50.560 ,0,0,0.,4.8,3.,4.8,1.,4.8,1.,4.8
1979-07-14 18:23:55.360 ,0,0,0.,4.8,1.,4.8,0.,4.8,0.,4.8
1979-07-14 18:24:00.160 ,0,0,0.,4.8,0.,4.8,0.,4.8,1.,4.8
1979-07-14 18:24:04.960 ,0,0,0.,4.8,0.,4.8,0.,4.8,0.,4.8
1979-07-14 18:24:09.760 ,0,0,0.,4.8,2.,4.8,0.,4.8,1.,4.8
1979-07-14 18:24:14.560 ,0,0,0.,4.8,2.,4.8,1.,4.8,1.,4.8
1979-07-14 18:24:19.360 ,0,0,0.,4.8,2.,4.8,0.,4.8,0.,4.8
1979-07-14 18:24:24.160 ,0,0,0.,4.8,2.,4.8,1.,4.8,1.,4.8
1979-07-14 18:24:28.960 ,0,0,0.,4.8,1.,4.8,1.,4.8,1.,4.8
1979-07-14 18:24:33.760 ,0,0,0.,4.8,2.,4.8,0.,4.8,1.,4.8
1979-07-14 18:24:38.560 ,0,0,0.,4.8,0.,4.8,1.,4.8,0.,4.8
1979-07-14 18:24:43.360 ,0,0,0.,4.8,0.,4.8,1.,4.8,2.,4.8
1979-07-14 18:24:48.160 ,1,0,0.,4.8,2.,4.8,0.,4.8,1.,4.8
1979-07-14 18:24:52.960 ,1,0,0.,4.8,0.,4.8,1.,4.8,2.,4.8
1979-07-14 18:24:57.760 ,1,0,0.,4.8,3.,4.8,1.,4.8,0.,4.8
1979-07-14 18:25:02.560 ,1,0,0.,4.8,0.,4.8,1.,4.8,0.,4.8
1979-07-14 18:25:07.360 ,1,0,0.,4.8,0.,4.8,0.,4.8,2.,4.8
1979-07-14 18:25:12.160 ,1,0,0.,4.8,0.,4.8,0.,4.8,1.,4.8
1979-07-14 18:25:16.960 ,1,0,0.,4.8,4.,4.8,0.,4.8,0.,4.8
1979-07-14 18:25:21.760 ,1,0,0.,4.8,2.,4.8,1.,4.8,1.,4.8
1979-07-14 18:25:26.560 ,1,0,0.,4.8,1.,4.8,1.,4.8,1.,4.8
1979-07-14 18:25:31.360 ,1,0,0.,4.8,1.,4.8,0.,4.8,0.,4.8
1979-07-14 18:25:36.160 ,2,0,0.,4.8,0.,4.8,0.,4.8,1.,4.8
1979-07-14 18:25:40.960 ,2,0,0.,4.8,3.,4.8,0.,4.8,0.,4.8
1979-07-14 18:25:45.760 ,2,0,0.,4.8,2.,4.8,0.,4.8,1.,4.8
1979-07-14 18:25:50.560 ,2,0,0.,4.8,2.,4.8,0.,4.8,0.,4.8
1979-07-14 18:25:55.360 ,2,0,0.,4.8,2.,4.8,2.,4.8,1.,4.8
1979-07-14 18:26:00.160 ,2,0,0.,4.8,1.,4.8,0.,4.8,0.,4.8
1979-07-14 18:26:04.960 ,2,0,0.,4.8,1.,4.8,0.,4.8,2.,4.8
1979-07-14 18:26:09.760 ,2,0,0.,4.8,3.,4.8,0.,4.8,2.,4.8
1979-07-14 18:26:14.560 ,2,0,0.,4.8,0.,4.8,1.,4.8,0.,4.8
1979-07-14 18:26:19.360 ,2,0,0.,4.8,1.,4.8,0.,4.8,0.,4.8
1979-07-14 18:27:12.160 ,0,0,0.,4.8,2.,4.8,0.,4.8,1.,4.8
1979-07-14 18:27:16.960 ,0,0,0.,4.8,1.,4.8,0.,4.8,0.,4.8
1979-07-14 18:27:21.760 ,0,0,0.,4.8,3.,4.8,0.,4.8,1.,4.8
1979-07-14 18:27:26.560 ,0,0,0.,4.8,1.,4.8,1.,4.8,0.,4.8
1979-07-14 18:27:31.360 ,0,0,0.,4.8,0.,4.8,0.,4.8,0.,4.8
1979-07-14 18:27:36.160 ,0,0,0.,4.8,7.,4.8,1.,4.8,0.,4.8
1979-07-14 18:27:40.960 ,0,0,0.,4.8,2.,4.8,0.,4.8,0.,4.8
1979-07-14 18:27:45.760 ,0,0,0.,4.8,1.,4.8,1.,4.8,0.,4.8
1979-07-14 18:27:50.560 ,0,0,0.,4.8,1.,4.8,2.,4.8,0.,4.8
1979-07-14 18:27:55.360 ,0,0,0.,4.8,0.,4.8,3.,4.8,0.,4.8
1979-07-14 18:28:00.160 ,5,0,0.,4.8,0.,4.8,1.,4.8,1.,4.8
1979-07-14 18:28:04.960 ,5,0,0.,4.8,0.,4.8,0.,4.8,1.,4.8
1979-07-14 18:28:09.760 ,5,0,0.,4.8,3.,4.8,0.,4.8,1.,4.8
1979-07-14 18:28:14.560 ,5,0,0.,4.8,5.,4.8,1.,4.8,2.,4.8
1979-07-14 18:28:19.360 ,5,0,0.,4.8,1.,4.8,3.,4.8,0.,4.8
1979-07-14 18:28:24.160 ,5,0,0.,4.8,0.,4.8,1.,4.8,0.,4.8
1979-07-14 18:28:28.960 ,5,0,0.,4.8,1.,4.8,2.,4.8,0.,4.8
1979-07-14 18:28:33.760 ,5,0,0.,4.8,2.,4.8,0.,4.8,0.,4.8
1979-07-14 18:28:38.560 ,5,0,0.,4.8,1.,4.8,1.,4.8,3.,4.8
1979-07-14 18:28:43.360 ,5,0,0.,4.8,2.,4.8,0.,4.8,1.,4.8
1979-07-14 18:28:48.160 ,6,0,0.,4.8,2.,4.8,1.,4.8,1.,4.8
1979-07-14 18:28:52.960 ,6,0,0.,4.8,1.,4.8,0.,4.8,2.,4.8
1979-07-14 18:28:57.760 ,6,0,0.,4.8,0.,4.8,1.,4.8,0.,4.8
1979-07-14 18:29:02.560 ,6,0,0.,4.8,2.,4.8,1.,4.8,0.,4.8
1979-07-14 18:29:07.360 ,6,0,0.,4.8,5.,4.8,1.,4.8,1.,4.8
1979-07-14 18:29:12.160 ,6,0,0.,4.8,2.,4.8,1.,4.8,0.,4.8
1979-07-14 18:29:16.960 ,6,0,0.,4.8,0.,4.8,2.,4.8,2.,4.8
1979-07-14 18:29:21.760 ,6,0,0.,4.8,3.,4.8,1.,4.8,0.,4.8
1979-07-14 18:29:26.560 ,6,0,0.,4.8,1.,4.8,0.,4.8,1.,4.8
1979-07-14 18:29:31.360 ,6,0,0.,4.8,1.,4.8,0.,4.8,3.,4.8
1979-07-14 18:29:36.160 ,7,0,0.,4.8,0.,4.8,2.,4.8,0.,4.8
1979-07-14 18:29:40.960 ,7,0,0.,4.8,3.,4.8,0.,4.8,1.,4.8
1979-07-14 18:29:45.760 ,7,0,0.,4.8,1.,4.8,0.,4.8,0.,4.8
1979-07-14 18:29:50.560 ,7,0,0.,4.8,0.,4.8,0.,4.8,0.,4.8
1979-07-14 18:29:55.360 ,7,0,0.,4.8,1.,4.8,0.,4.8,0.,4.8
1979-07-14 18:30:00.160 ,7,0,0.,4.8,0.,4.8,0.,4.8,0.,4.8
1979-07-14 18:30:04.960 ,7,0,0.,4.8,0.,4.8,0.,4.8,0.,4.8
1979-07-14 18:30:09.760 ,7,0,0.,4.8,0.,4.8,0.,4.8,0.,4.8
1979-07-14 18:30:14.560 ,7,0,0.,4.8,0.,4.8,0.,4.8,0.,4.8
1979-07-14 18:30:19.360 ,7,0,0.,4.8,1.,4.8,0.,4.8,0.,4.8
1979-07-14 18:30:24.160 ,7,0,0.,4.8,1.,4.8,0.,4.8,0.,4.8
1979-07-14 18:30:28.960 ,7,0,0.,4.8,0.,4.8,0.,4.8,0.,4.8
1979-07-14 18:30:33.760 ,7,0,0.,4.8,1.,4.8,0.,4.8,0.,4.8
1979-07-14 18:30:38.560 ,7,0,0.,4.8,1.,4.8,0.,4.8,0.,4.8
1979-07-14 18:30:43.360 ,7,0,0.,4.8,0.,4.8,0.,4.8,0.,4.8
1979-07-14 18:30:48.160 ,7,0,0.,4.8,0.,4.8,0.,4.8,1.,4.8
1979-07-14 18:30:52.960 ,7,0,0.,4.8,0.,4.8,0.,4.8,1.,4.8
1979-07-14 18:30:57.760 ,7,0,0.,4.8,3.,4.8,0.,4.8,0.,4.8
1979-07-14 18:31:02.560 ,7,0,0.,4.8,0.,4.8,0.,4.8,0.,4.8
1979-07-14 18:31:07.360 ,7,0,0.,4.8,0.,4.8,0.,4.8,0.,4.8
1979-07-14 18:31:12.160 ,6,0,0.,4.8,1.,4.8,0.,4.8,1.,4.8
1979-07-14 18:31:16.960 ,6,0,0.,4.8,1.,4.8,0.,4.8,1.,4.8
1979-07-14 18:31:21.760 ,6,0,0.,4.8,4.,4.8,0.,4.8,1.,4.8
1979-07-14 18:31:26.560 ,6,0,0.,4.8,3.,4.8,1.,4.8,1.,4.8
1979-07-14 18:31:31.360 ,6,0,0.,4.8,0.,4.8,1.,4.8,2.,4.8
1979-07-14 18:31:36.160 ,6,0,0.,4.8,1.,4.8,2.,4.8,0.,4.8
1979-07-14 18:31:40.960 ,6,0,0.,4.8,4.,4.8,0.,4.8,5.,4.8
1979-07-14 18:31:45.760 ,6,0,0.,4.8,1.,4.8,1.,4.8,2.,4.8
1979-07-14 18:31:50.560 ,6,0,0.,4.8,4.,4.8,2.,4.8,1.,4.8
1979-07-14 18:31:55.360 ,6,0,0.,4.8,2.,4.8,0.,4.8,1.,4.8
1979-07-14 18:32:00.160 ,5,0,0.,4.8,6.,4.8,1.,4.8,1.,4.8
1979-07-14 18:32:04.960 ,5,0,0.,4.8,1.,4.8,1.,4.8,0.,4.8
1979-07-14 18:32:09.760 ,5,0,0.,4.8,1.,4.8,3.,4.8,1.,4.8
1979-07-14 18:32:14.560 ,5,0,0.,4.8,2.,4.8,0.,4.8,1.,4.8
1979-07-14 18:32:19.360 ,5,0,0.,4.8,1.,4.8,1.,4.8,0.,4.8
1979-07-14 18:32:24.160 ,5,0,0.,4.8,1.,4.8,0.,4.8,1.,4.8
1979-07-14 18:32:28.960 ,5,0,0.,4.8,3.,4.8,0.,4.8,0.,4.8
1979-07-14 18:32:33.760 ,5,0,0.,4.8,1.,4.8,1.,4.8,0.,4.8
1979-07-14 18:32:38.560 ,5,0,0.,4.8,3.,4.8,1.,4.8,1.,4.8
1979-07-14 18:32:43.360 ,5,0,0.,4.8,1.,4.8,2.,4.8,4.,4.8
1979-07-14 18:32:48.160 ,4,0,0.,4.8,5.,4.8,0.,4.8,0.,4.8
1979-07-14 18:32:52.960 ,4,0,0.,4.8,1.,4.8,1.,4.8,1.,4.8
1979-07-14 18:32:57.760 ,4,0,0.,4.8,1.,4.8,2.,4.8,1.,4.8
1979-07-14 18:33:02.560 ,4,0,0.,4.8,1.,4.8,0.,4.8,3.,4.8
1979-07-14 18:33:07.360 ,4,0,0.,4.8,3.,4.8,0.,4.8,5.,4.8
1979-07-14 18:33:12.160 ,4,0,0.,4.8,1.,4.8,1.,4.8,2.,4.8
1979-07-14 18:33:16.960 ,4,0,0.,4.8,0.,4.8,0.,4.8,2.,4.8
1979-07-14 18:33:21.760 ,4,0,0.,4.8,3.,4.8,3.,4.8,0.,4.8
1979-07-14 18:33:26.560 ,4,0,0.,4.8,0.,4.8,2.,4.8,2.,4.8
1979-07-14 18:33:31.360 ,4,0,0.,4.8,1.,4.8,0.,4.8,1.,4.8
1979-07-14 18:33:36.160 ,3,0,0.,4.8,2.,4.8,4.,4.8,0.,4.8
1979-07-14 18:33:40.960 ,3,0,0.,4.8,4.,4.8,3.,4.8,1.,4.8
1979-07-14 18:33:45.760 ,3,0,0.,4.8,0.,4.8,2.,4.8,1.,4.8
1979-07-14 18:33:50.560 ,3,0,0.,4.8,3.,4.8,0.,4.8,1.,4.8
1979-07-14 18:33:55.360 ,3,0,0.,4.8,2.,4.8,2.,4.8,5.,4.8
1979-07-14 18:34:00.160 ,3,0,0.,4.8,3.,4.8,1.,4.8,1.,4.8
1979-07-14 18:34:04.960 ,3,0,0.,4.8,2.,4.8,1.,4.8,1.,4.8